TimeCDT,TemperatureF,Dew PointF,Humidity,Sea Level PressureIn,VisibilityMPH,Wind Direction,Wind SpeedMPH,Gust SpeedMPH,PrecipitationIn,Events,Conditions,WindDirDegrees,DateUTC
12:54 AM,77.0,72.0,84,29.97,10.0,South,3.5,-,N/A,,Clear,180,2013-06-27 05:54:00
1:54 AM,77.0,72.0,84,29.98,10.0,South,6.9,-,N/A,,Clear,190,2013-06-27 06:54:00
2:54 AM,75.9,72.0,87,29.98,10.0,South,3.5,-,N/A,,Clear,190,2013-06-27 07:54:00
3:54 AM,75.0,72.0,90,29.99,10.0,South,4.6,-,N/A,,Clear,180,2013-06-27 08:54:00
4:54 AM,75.0,72.0,90,29.99,10.0,South,3.5,-,N/A,,Clear,190,2013-06-27 09:54:00
5:54 AM,75.0,72.0,90,30.00,10.0,SSW,5.8,-,0.01,,Scattered Clouds,210,2013-06-27 10:54:00
6:54 AM,75.9,73.0,91,30.00,10.0,SW,5.8,-,N/A,,Scattered Clouds,230,2013-06-27 11:54:00
7:54 AM,79.0,73.0,82,30.01,10.0,WSW,6.9,-,N/A,,Clear,240,2013-06-27 12:54:00
8:54 AM,82.9,73.0,72,30.01,10.0,WSW,5.8,-,N/A,,Clear,250,2013-06-27 13:54:00
9:54 AM,86.0,72.0,63,30.00,10.0,West,6.9,-,N/A,,Scattered Clouds,260,2013-06-27 14:54:00
10:54 AM,87.1,72.0,61,30.00,10.0,WSW,9.2,-,N/A,,Partly Cloudy,250,2013-06-27 15:54:00
11:54 AM,89.1,71.1,55,29.99,10.0,WSW,9.2,-,N/A,,Clear,250,2013-06-27 16:54:00
12:54 PM,91.0,71.1,52,29.97,10.0,Variable,4.6,-,N/A,,Clear,0,2013-06-27 17:54:00
1:54 PM,93.0,71.1,49,29.96,10.0,WNW,6.9,-,N/A,,Clear,290,2013-06-27 18:54:00
2:54 PM,91.9,72.0,52,29.95,10.0,Variable,6.9,-,N/A,,Clear,0,2013-06-27 19:54:00
3:54 PM,91.9,72.0,52,29.94,10.0,WNW,5.8,-,N/A,,Partly Cloudy,290,2013-06-27 20:54:00
4:54 PM,93.0,73.0,52,29.94,10.0,West,8.1,-,N/A,,Scattered Clouds,270,2013-06-27 21:54:00
5:54 PM,91.9,73.9,55,29.91,10.0,West,3.5,-,N/A,,Scattered Clouds,280,2013-06-27 22:54:00
6:54 PM,90.0,73.9,59,29.90,10.0,WSW,4.6,-,N/A,,Scattered Clouds,240,2013-06-27 23:54:00
7:54 PM,87.1,73.9,65,29.91,10.0,West,3.5,-,N/A,,Partly Cloudy,280,2013-06-28 00:54:00
8:54 PM,82.9,75.0,77,29.91,10.0,SSW,3.5,-,N/A,,Clear,200,2013-06-28 01:54:00
9:54 PM,82.0,75.0,79,29.92,10.0,Calm,Calm,-,N/A,,Clear,0,2013-06-28 02:54:00
10:54 PM,80.1,75.0,85,29.92,10.0,SSW,4.6,-,N/A,,Clear,200,2013-06-28 03:54:00
11:54 PM,80.1,75.0,85,29.92,10.0,Calm,Calm,-,N/A,,Clear,0,2013-06-28 04:54:00